Oakland, CA

10:32 PM PDT on June 20, 2018 (GMT -0700)
Metro Oakland International

Weather History for KOAK - October, 2017

Change the Weather History Date:

Sunday, October 1, 2017

  Actual Average Record
Temperature  
Mean Temperature 62 °F 63 °F  
Max Temperature 73 °F 73 °F 94 °F (1952)
Min Temperature 50 °F 53 °F 42 °F (1950)
Degree Days  
Heating Degree Days 3 3  
Month to date heating degree days 3 3  
Since 1 July heating degree days 76 203  
Cooling Degree Days 0 1  
Month to date cooling degree days 0 1  
Year to date cooling degree days 290 126  
Growing Degree Days 12 (Base 50)    
Moisture  
Dew Point 51 °F    
Average Humidity 69    
Maximum Humidity 93    
Minimum Humidity 44    
Precipitation  
Precipitation 0.00 in 0.01 in 0.42 in (1976)
Month to date precipitation 0.00 0.01  
Year to date precipitation 20.12 13.51  
Sea Level Pressure  
Sea Level Pressure 29.91 in    
Wind  
Wind Speed 6 mph (WNW)    
Max Wind Speed 20 mph    
Max Gust Speed 24 mph    
Visibility 10 miles    
Events      
T = Trace of Precipitation, MM = Missing Value Source: NWS Daily Summary

Daily Weather History Graph

Daily Weather History Graph

Search for Another Location

Airport or City:

Astronomy

Oct. 01, 2017 Rise Set
Actual Time 7:04 AM PDT 6:51 PM PDT
Civil Twilight 6:38 AM PDT 7:17 PM PDT
Nautical Twilight 6:08 AM PDT 7:47 PM PDT
Astronomical Twilight 5:37 AM PDT 8:18 PM PDT
Moon 4:49 PM PDT (10/1) 2:45 AM PDT (10/1)
Length of Visible Light 12h 38m
Length of Day
11h 46m
Waxing Gibbous, 83% of the Moon is Illuminated
Oct 1
Waxing Gibbous
Oct 5
Full
Oct 12
Last Quarter
Oct 19
New
Oct 27
First Quarter

Hourly Weather History & Observations

Time (PDT) Temp. Dew Point Humidity Pressure Visibility Wind Dir Wind Speed Gust Speed Precip Events Conditions
12:53 AM 57.0 °F 53.1 °F 87% 29.93 in 10.0 mi Calm Calm - N/A   Mostly Cloudy
1:53 AM 55.0 °F 53.1 °F 93% 29.93 in 10.0 mi Calm Calm - N/A   Scattered Clouds
2:53 AM 55.0 °F 52.0 °F 89% 29.94 in 10.0 mi NE 3.5 mph - N/A   Partly Cloudy
3:53 AM 57.0 °F 54.0 °F 89% 29.94 in 10.0 mi Calm Calm - N/A   Partly Cloudy
4:53 AM 55.0 °F 53.1 °F 93% 29.94 in 10.0 mi Calm Calm - N/A   Clear
5:53 AM 54.0 °F 51.1 °F 90% 29.95 in 10.0 mi NE 4.6 mph - N/A   Clear
6:53 AM 52.0 °F 48.9 °F 89% 29.96 in 10.0 mi Calm Calm - N/A   Scattered Clouds
7:53 AM 53.1 °F 48.9 °F 86% 29.97 in 10.0 mi NE 3.5 mph - N/A   Overcast
8:53 AM 62.1 °F 52.0 °F 70% 29.98 in 10.0 mi NNW 3.5 mph - N/A   Mostly Cloudy
9:53 AM 66.0 °F 48.9 °F 54% 29.96 in 10.0 mi WNW 6.9 mph - N/A   Partly Cloudy
10:53 AM 66.9 °F 48.0 °F 51% 29.96 in 10.0 mi West 10.4 mph - N/A   Partly Cloudy
11:53 AM 70.0 °F 46.9 °F 44% 29.96 in 10.0 mi West 10.4 mph - N/A   Scattered Clouds
12:53 PM 72.0 °F 50.0 °F 46% 29.93 in 10.0 mi West 16.1 mph - N/A   Scattered Clouds
1:53 PM 73.0 °F 51.1 °F 46% 29.90 in 10.0 mi West 18.4 mph - N/A   Scattered Clouds
2:53 PM 72.0 °F 48.9 °F 44% 29.88 in 10.0 mi West 18.4 mph - N/A   Scattered Clouds
3:53 PM 70.0 °F 53.1 °F 55% 29.86 in 10.0 mi West 15.0 mph - N/A   Scattered Clouds
4:53 PM 68.0 °F 50.0 °F 52% 29.84 in 10.0 mi West 11.5 mph - N/A   Partly Cloudy
5:53 PM 66.0 °F 51.1 °F 59% 29.84 in 10.0 mi West 8.1 mph - N/A   Partly Cloudy
6:53 PM 64.0 °F 51.1 °F 63% 29.83 in 10.0 mi West 5.8 mph - N/A   Scattered Clouds
7:53 PM 62.1 °F 52.0 °F 70% 29.83 in 10.0 mi SW 4.6 mph - N/A   Mostly Cloudy
8:53 PM 57.9 °F 52.0 °F 81% 29.85 in 10.0 mi Calm Calm - N/A   Mostly Cloudy
9:53 PM 54.0 °F 50.0 °F 86% 29.85 in 10.0 mi Calm Calm - N/A   Scattered Clouds
10:53 PM 55.0 °F 51.1 °F 86% 29.85 in 10.0 mi ENE 3.5 mph - N/A   Partly Cloudy
11:53 PM 54.0 °F 51.1 °F 90% 29.85 in 10.0 mi Calm Calm - N/A   Clear